Location: Hanover
(52.3667°N, 9.7167°E)
Time: 04:31:33
(UTC+02:00)

Envisat - Pass Details

Date: 21 September 2024
Orbit: 762 x 764 km, 98.3° (Epoch: 04 October)

Event Time Altitude Azimuth Distance (km) Brightness Sun altitude
Rises 03:58:21 0° 20° (NNE) 3,240 7.2 -26.9°
Reaches altitude 10° 04:00:50 10° 28° (NNE) 2,309 6.4 -26.6°
Maximum altitude 04:05:33 38° 96° (E) 1,160 4.2 -26.1°
Enters shadow 04:07:55 24° 146° (SSE) 1,527 4.4 -25.8°
